IRIDIUM 33 DEB, 36390

Orbit data source: Space-Track

IRIDIUM 33 DEB, 36390 is space debris in LEO originally from a launch on Sun, 14 Sep 1997 UTC launched from the Tyuratam Missile And Space Complex (TTMTR). The debris from Iridium 33, an American commercial communications satellite, has been tracked extensively since its accidental collision with the defunct Russian satellite Cosmos 2251 in 2009. This event, occurring at high speed in low Earth orbit (LEO), generated thousands of pieces of space debris, significantly increasing the risk of further collisions. The Iridium 33 debris cloud has impacted space traffic management and orbital debris mitigation strategies, making it a subject of ongoing study in space situational awareness.

Loading next visibility...
Identifier
36390, 1997-051VU
Orbit
LEO
Country
Flag of USUS
Related business
Manufacturer
Unknown
Mission
Spacecraft
Bus & Motor
Unknown
Mass
Unknown
Launch date (UTC)
1997-09-14 (28 years ago)
Launch vehicle
Unknown
Launch site
Tyuratam Missile And Space Complex (TTMTR)
Object type
Payload
Rocket body
Debris
Shape & HBR
Unknown shape, 0.1 m
Radar Cross Section
Small (<0.1 m²)

Expand to show TLE details & history
Last TLE update: 4 days ago

TLE from 4 days ago
0 IRIDIUM 33 DEB
1 36390U 97051VU  26060.28946878  .00006003  00000-0  88857-3 0  9997
2 36390  86.2859 263.3476 0027954 255.4751 104.3366 14.74753978674193
Epoch: 2026-03-01T06:56Z
TLE epoch observation values (Epoch: 2026-03-01T06:56:50.102Z)
Latitude
-0.00002°
Longitude
0.03947°
Altitude
653.954 km
Speed
7.528 km/s
True Right ascension
17h 33m 23s
True Declination
0° 00' 00"
Sunlit
Object was in daylight at epoch
Visualization orbit readout
Latitude
Unknown
Longitude
Unknown
Altitude
Unknown
Speed
Unknown
Apparent Right ascension
Unknown
Apparent Declination
Unknown
Sunlit
N/A
Visualization observer readout
Local Sidereal Time
03:45:07
Azimuth
Unknown
Elevation
Unknown
Doppler factor
Unknown
Orbital elements
Apogee altitude
662.469 km
Perigee altitude
623.216 km
Semi-major axis
7,020.979 km
Eccentricity
0.0028
Inclination
86.2859°
RAAN
263.3476°
Arg. of periapsis
255.4751°
True anomaly
104.64668°
Mean anomaly
104.3366°
Eccentric anomaly
104.49167°
Mean motion
3.68932 °/min
Orbital period
97.58 mins
BSTAR
0.00088857
Loading maneuver chart data...
Computing Atmospheric mass density...
Loading historical data...
Loading historical data...
Loading historical data...
Loading historical data...
Loading historical data...
Loading historical data...
Loading historical data...

Documentation

Showing up to 5 results
|